Regional Weather Roundup
Issued by NWS

Home | Current Version | Previous Version | Graphics & Text | Print | Product List | Glossary Off
Versions: 1 2 3 4 5 6 7 8 9 10 11 12 13 14 15 16 17 18 19 20 21 22 23 24 25 26 27 28 29 30 31 32 33 34 35 36 37 38 39 40 41 42 43 44 45 46 47 48 49 50

000
ASUS43 KMKX 172100
RWRWI

WISCONSIN REGIONAL WEATHER ROUNDUP
NATIONAL WEATHER SERVICE MILWAUKEE/SULLIVAN WI
400 PM CDT TUE OCT 17 2017

NOTE: "FAIR" INDICATES FEW OR NO CLOUDS BELOW 12,000 FEET WITH NO
SIGNIFICANT WEATHER AND/OR OBSTRUCTIONS TO VISIBILITY.

WIZ001-002-006>008-014>016-023>028-172200-
NORTHWEST WISCONSIN

CITY           SKY/WX    TMP DP  RH WIND       PRES   REMARKS
SUPERIOR ARPT  SUNNY     71  38  30 SW12      29.88F
ASHLAND        SUNNY     71  39  31 SW9       29.91F
HAYWARD        SUNNY     69  42  37 S9        29.94S
SIREN          CLOUDY    70  40  33 SW7       29.94S
CUMBERLAND     CLOUDY    68  37  32 SW13      29.95F
RICE LAKE      CLOUDY    72  40  31 SW7       29.96F
CHETEK         CLOUDY    70  45  39 SW9       29.95F
LADYSMITH      SUNNY     68  44  41 SW6       29.97F
EAU CLAIRE     NOT AVBL
MENOMONIE      SUNNY     71  44  37 SW8       29.96S
NEW RICHMOND   SUNNY     69  43  38 SW7       29.96S
OSCEOLA        SUNNY     70  46  42 S8        29.97F
$$

WIZ003>005-009-010-017-018-172200-
NORTH CENTRAL WISCONSIN

CITY           SKY/WX    TMP DP  RH WIND       PRES   REMARKS
MANITOWISH WTR SUNNY     67  38  34 SW7       29.96F
ARBOR VITAE    SUNNY     69  40  34 CALM      29.96F
WOODRUFF       SUNNY     69  40  34 CALM      29.96F
RHINELANDER    SUNNY     69  42  37 S8        29.98F
EAGLE RIVER    SUNNY     67  33  29 SW5       29.97F
LAND O LAKES   SUNNY     68  34  28 W6        29.99S
PHILLIPS       CLOUDY    68  43  40 SW8       29.96S
TOMAHAWK       SUNNY     68  39  34 SW6       29.98S
MEDFORD        CLOUDY    67  44  43 S7        29.98S
MERRILL        CLOUDY    68  46  44 SW5       29.99S
$$

WIZ029-030-035-036-043>047-172200-
CENTRAL WISCONSIN

CITY           SKY/WX    TMP DP  RH WIND       PRES   REMARKS
WAUSAU         CLOUDY    68  44  42 S10       29.97F
MOSINEE        MOSUNNY   70  45  40 S10       30.00F
MARSHFIELD     SUNNY     69  44  40 SW8       29.98F
STEVENS POINT  SUNNY     67  44  44 S7        30.01S
WAUPACA        SUNNY     71  45  39 S9        30.01S
WAUTOMA        SUNNY     70  46  42 SW14      30.01F
WISC RAPIDS    SUNNY     69  47  45 SW10      30.01F
CAMP DOUGLAS   NOT AVBL
$$

WIZ011>013-019>022-031-037>040-048>050-172200-
NORTHEAST WISCONSIN

CITY           SKY/WX    TMP DP  RH WIND       PRES   REMARKS
ANTIGO         MOSUNNY   63  46  54 SW3       30.00S
SHAWANO        MOSUNNY   71  45  39 SW3       29.99S
OCONTO         MOSUNNY   68  45  43 SW7       29.99S
STURGEON BAY   CLOUDY    65  46  50 W5        30.01S
GREEN BAY      CLOUDY    67  50  54 S10       30.00F
MANITOWOC      SUNNY     68  46  45 SW12      30.02F
APPLETON       MOSUNNY   66  43  42 S9        30.00F
CLINTONVILLE   SUNNY     70  43  37 SW8       30.00S
OSHKOSH        SUNNY     69  46  43 S9        30.01F
$$

WIZ032>034-041-042-053>061-172200-
SOUTHWEST WISCONSIN

CITY           SKY/WX    TMP DP  RH WIND       PRES   REMARKS
LA CROSSE      SUNNY     72  46  39 S12       29.99F
SPARTA         SUNNY     69  45  41 SW5       30.01F
VIROQUA        SUNNY     68  46  45 SW10      30.03F
BOSCOBEL       SUNNY     75  43  31 SW13G20   30.03F
PRAIRIE DU CHI SUNNY     73  40  30 S9G16     30.02F
PLATTEVILLE    SUNNY     71  44  38 SW15      30.07F
$$

WIZ056-057-062-063-064-067-068-172200-
SOUTH CENTRAL WISCONSIN

CITY           SKY/WX    TMP DP  RH WIND       PRES   REMARKS
REEDSBURG      SUNNY     69  46  43 SW12      30.03S
BARABOO/DELLS  SUNNY     68  44  40 SW10G16   30.03F
LONE ROCK      SUNNY     72  46  39 SW10      30.03F
MINERAL POINT  SUNNY     72  41  33 SW13G18   30.06F
MADISON        MOSUNNY   70  44  39 SW8G20    30.04F
MIDDLETON      SUNNY     72  43  34 SW13      30.05F
WATERTOWN      SUNNY     70  45  41 SW15      30.05S
MONROE         SUNNY     70  39  32 SW18G24   30.07F
JANESVILLE     MOSUNNY   73  39  29 SW16G23   30.07F
$$

WIZ051-052-058>065-066-070>072-172200-
SOUTHEAST WISCONSIN

CITY           SKY/WX    TMP DP  RH WIND       PRES   REMARKS
MILWAUKEE      MOSUNNY   73  43  33 SW20      30.06F
WAUKESHA       SUNNY     70  41  35 SW15G23   30.07S
MILWAUKEE/TIMM SUNNY     72  37  28 SW16G24   30.06S
RACINE         SUNNY     72  43  35 SW13G25   30.08S
BURLINGTON     SUNNY     72  45  37 SW15G25   30.08S
KENOSHA        SUNNY     71  43  36 SW18G24   30.08F
FOND DU LAC    SUNNY     70  43  37 SW9       30.03F
SHEBOYGAN      SUNNY     69  48  47 SW9       30.03F
WEST BEND      SUNNY     68  41  37 W12G18    30.04F
JUNEAU         SUNNY     68  45  42 SW15      30.06F
$$

LSZ147-162-172200-
LAKE SUPERIOR

STATION/POSITION TIME  TEMP    WIND        PRES    WAVE
                       AIR SEA DIR/SP/G            HT/PER
                 (UTC) (F)     (DEG/KT/KT) (MB)    (FT/S)
W MID LAKE BUOY  1950   54 53              1013.5F   2/ 4
DEVILS ISLAND    2000   56      20/  2/  2 1013.4F
SAXON HARBOR     2030   72     210/  9/ 14 1012.9F
$$

LMZ867-665-643>646-172200-
LAKE MICHIGAN

STATION/POSITION TIME  TEMP    WIND        PRES    WAVE
                       AIR SEA DIR/SP/G            HT/PER
                 (UTC) (F)     (DEG/KT/KT) (MB)    (FT/S)
S GREEN BAY BUOY 2030   62 58  200/ 10/ 12 1015.7F
N MID LAKE BUOY  1950   58 59  200/ 16/ 17 1016.3F   4/ 7
NORTHPORT PIER   2040   62     150/  7/ 10 1015.6S
KEWAUNEE LAKESHO 2030   68     150/  6/  8 1015.4F
SHEBOYGAN LAKESH 2000   63     160/  8/  9 1016.9F
PORT WASHINGTON  2040   73     260/  7/ 13 1017.9S
MILWAUKEE LAKESH 2030   71     250/ 13/ 17   N/A
S MID LAKE BUOY  1950   63 61  220/ 19/ 21 1019.0F   5/ 6
KENOSHA   LAKESH 2000   71     220/ 15/ 26 1018.3
$$

TC  - TEMPERATURE IN CELSIUS
VSB - VISIBILITY IN STATUTE MILES
WCI - WIND CHILL INDEX
HX  - HEAT INDEX




USA.gov is the U.S. government's official web portal to all federal, state and local government web resources and services.